contact:dominique.lefevre@mio.osupytheas.fr, maurice.libes@osupytheas.fr, didier.mallarino@osupytheas.fr
Project:EMSO http://www.emso-fr.org/EMSO-France
Depth: 2436.0 m
Title:EMSO Ligure Ouest : Data MII capteur AQUADOPP
Date,Latitude,Longitude,X_East,Y_North,Z_Up,Amplitude_X,Amplitude_Y,Amplitude_Z,Batterie,SoundSpeed,Heading,Pitch,Roll,Pressure,TIS,Speed,Direction
, degrees North, degrees East, m.s-1, m.s-1,m.s-1, 1, 1, 1, Volt, m.s-1, degree, degree, degree, dbar, degree_C, m.s-1, degree
2023-05-01T00:04:03,42.805,6.029,-0.051,0.021,-0.035,103.0,103.0,101.0,13.3,1505.2,321.3,-0.8,1.8,2471.35,13.28,0.055,292.4
2023-05-01T00:07:03,42.805,6.029,-0.022,0.03,-0.011,103.0,103.0,100.0,13.3,1505.2,329.4,-0.8,1.8,2471.376,13.28,0.037,323.7
2023-05-01T00:10:03,42.805,6.029,-0.018,0.019,-0.029,102.0,101.0,101.0,13.3,1505.2,322.7,-0.8,1.8,2471.346,13.29,0.026,316.5
2023-05-01T00:13:03,42.805,6.029,-0.028,0.006,-0.037,101.0,103.0,101.0,13.4,1505.2,326.5,-0.8,1.8,2471.346,13.29,0.028,282.1
2023-05-01T00:16:03,42.805,6.029,-0.021,0.019,-0.009,103.0,100.0,102.0,13.4,1505.2,318.0,-0.7,1.8,2471.352,13.29,0.028,312.1
2023-05-01T00:19:03,42.805,6.029,-0.024,0.028,-0.019,102.0,102.0,100.0,13.4,1505.2,321.6,-0.8,1.8,2471.373,13.29,0.036,319.4
2023-05-01T00:22:03,42.805,6.029,-0.048,0.023,-0.041,101.0,101.0,102.0,13.4,1505.2,322.9,-0.7,1.8,2471.285,13.29,0.053,295.6
2023-05-01T00:25:03,42.805,6.029,-0.006,0.027,-0.015,102.0,101.0,101.0,13.3,1505.2,335.8,-0.8,1.8,2471.324,13.29,0.027,347.5
2023-05-01T00:28:03,42.805,6.029,-0.039,0.05,-0.03,102.0,100.0,102.0,13.4,1505.2,330.8,-0.7,1.8,2471.314,13.29,0.063,322.0
2023-05-01T00:31:03,42.805,6.029,-0.021,0.019,-0.032,104.0,103.0,101.0,13.4,1505.2,322.5,-0.8,1.8,2471.324,13.29,0.028,312.1
2023-05-01T00:34:03,42.805,6.029,-0.01,0.032,-0.013,103.0,103.0,100.0,13.4,1505.2,337.2,-0.7,1.8,2471.335,13.29,0.033,342.6
2023-05-01T00:37:03,42.805,6.029,0.004,0.01,-0.035,105.0,102.0,101.0,13.4,1505.2,321.9,-0.8,1.8,2471.338,13.29,0.01,21.8
2023-05-01T00:40:03,42.805,6.029,-0.006,0.016,-0.027,102.0,102.0,101.0,13.3,1505.2,321.9,-0.8,1.8,2471.354,13.29,0.017,339.4
2023-05-01T00:43:03,42.805,6.029,-0.031,0.028,-0.016,103.0,102.0,101.0,13.4,1505.2,325.2,-0.8,1.8,2471.316,13.29,0.041,312.1
2023-05-01T00:46:03,42.805,6.029,-0.03,0.019,-0.03,100.0,101.0,101.0,13.4,1505.2,326.3,-0.8,1.8,2471.307,13.29,0.035,302.3
2023-05-01T00:49:03,42.805,6.029,-0.02,0.026,-0.023,101.0,103.0,101.0,13.4,1505.2,322.3,-0.8,1.8,2471.329,13.29,0.032,322.4
2023-05-01T00:52:03,42.805,6.029,-0.033,0.025,-0.038,102.0,100.0,100.0,13.4,1505.2,328.4,-0.7,1.8,2471.308,13.29,0.041,307.1
2023-05-01T00:55:03,42.805,6.029,-0.042,0.022,-0.032,101.0,101.0,101.0,13.4,1505.2,323.9,-0.8,1.8,2471.32,13.29,0.047,297.6
2023-05-01T00:58:03,42.805,6.029,-0.007,0.036,-0.005,103.0,101.0,101.0,13.4,1505.2,334.9,-0.7,1.8,2471.341,13.29,0.036,349.0
2023-05-01T01:04:03,42.805,6.029,-0.011,0.016,-0.027,104.0,104.0,101.0,13.4,1505.2,328.8,-0.8,1.8,2471.384,13.28,0.019,325.5
2023-05-01T01:07:03,42.805,6.029,-0.047,0.032,-0.018,103.0,102.0,101.0,13.4,1505.2,326.8,-0.8,1.8,2471.422,13.29,0.056,304.2
2023-05-01T01:10:03,42.805,6.029,-0.022,0.029,-0.037,102.0,101.0,101.0,13.4,1505.2,332.4,-0.8,1.8,2471.358,13.29,0.036,322.8
2023-05-01T01:13:03,42.805,6.029,-0.02,0.035,-0.003,104.0,101.0,103.0,13.4,1505.2,343.7,-0.8,1.8,2471.336,13.29,0.04,330.3
2023-05-01T01:16:03,42.805,6.029,-0.024,0.049,-0.002,102.0,100.0,101.0,13.4,1505.2,345.7,-0.8,1.8,2471.367,13.29,0.054,333.9
2023-05-01T01:19:03,42.805,6.029,-0.014,0.023,-0.022,102.0,102.0,101.0,13.4,1505.2,337.5,-0.8,1.8,2471.344,13.29,0.026,328.7
2023-05-01T01:22:03,42.805,6.029,-0.004,0.018,-0.004,101.0,101.0,101.0,13.3,1505.2,334.8,-0.8,1.8,2471.306,13.29,0.018,347.5
2023-05-01T01:25:03,42.805,6.029,-0.013,0.025,-0.02,102.0,102.0,101.0,13.4,1505.2,326.3,-0.8,1.8,2471.34,13.29,0.028,332.5
2023-05-01T01:28:03,42.805,6.029,-0.032,0.031,-0.007,102.0,101.0,102.0,13.4,1505.2,325.7,-0.7,1.8,2471.325,13.29,0.044,314.1
2023-05-01T01:31:03,42.805,6.029,-0.015,0.022,-0.02,103.0,102.0,101.0,13.4,1505.2,326.5,-0.8,1.8,2471.29,13.29,0.026,325.7
2023-05-01T01:34:03,42.805,6.029,-0.015,0.035,0.0,104.0,102.0,100.0,13.4,1505.2,325.7,-0.8,1.8,2471.331,13.29,0.038,336.8
2023-05-01T01:37:03,42.805,6.029,-0.017,0.029,-0.013,102.0,102.0,102.0,13.4,1505.2,337.6,-0.8,1.8,2471.36,13.29,0.033,329.6
2023-05-01T01:40:03,42.805,6.029,-0.013,0.005,-0.022,104.0,102.0,102.0,13.3,1505.2,318.7,-0.8,1.8,2471.357,13.29,0.013,291.0
2023-05-01T01:43:03,42.805,6.029,-0.042,0.025,-0.015,102.0,101.0,102.0,13.4,1505.2,322.2,-0.7,1.8,2471.355,13.29,0.048,300.8
2023-05-01T01:46:03,42.805,6.029,-0.028,0.045,-0.009,103.0,101.0,102.0,13.4,1505.2,344.0,-0.7,1.8,2471.366,13.29,0.053,328.1
2023-05-01T01:49:03,42.805,6.029,-0.036,0.025,-0.025,102.0,102.0,101.0,13.4,1505.2,335.7,-0.7,1.8,2471.338,13.29,0.043,304.8
2023-05-01T01:52:03,42.805,6.029,-0.025,0.016,-0.01,100.0,103.0,101.0,13.3,1505.2,326.3,-0.7,1.8,2471.375,13.29,0.029,302.6
2023-05-01T01:55:03,42.805,6.029,-0.02,0.036,-0.011,100.0,101.0,102.0,13.4,1505.2,335.9,-0.8,1.8,2471.31,13.29,0.041,330.9
2023-05-01T01:58:03,42.805,6.029,-0.023,0.03,-0.022,103.0,100.0,101.0,13.3,1505.2,334.7,-0.7,1.8,2471.348,13.29,0.037,322.5
2023-05-01T02:04:03,42.805,6.029,-0.019,0.042,-0.003,102.0,102.0,103.0,13.3,1505.2,333.8,-0.8,1.8,2471.422,13.28,0.046,335.7
2023-05-01T02:07:03,42.805,6.029,-0.033,0.033,-0.037,101.0,102.0,101.0,13.4,1505.2,329.5,-0.8,1.8,2471.421,13.29,0.046,315.0
2023-05-01T02:10:03,42.805,6.029,-0.018,0.014,-0.033,101.0,102.0,101.0,13.4,1505.2,329.6,-0.8,1.8,2471.401,13.29,0.022,307.9
2023-05-01T02:13:03,42.805,6.029,-0.01,0.014,-0.026,101.0,101.0,101.0,13.4,1505.2,334.4,-0.7,1.8,2471.411,13.29,0.017,324.5
2023-05-01T02:16:03,42.805,6.029,-0.055,0.038,-0.021,101.0,101.0,102.0,13.4,1505.2,331.8,-0.8,1.8,2471.403,13.29,0.066,304.6
2023-05-01T02:19:03,42.805,6.029,-0.007,0.04,-0.014,102.0,101.0,102.0,13.4,1505.2,343.7,-0.8,1.8,2471.403,13.29,0.04,350.1
2023-05-01T02:22:03,42.805,6.029,-0.035,0.023,-0.013,102.0,100.0,102.0,13.3,1505.2,322.3,-0.8,1.8,2471.364,13.29,0.041,303.3
2023-05-01T02:25:03,42.805,6.029,0.003,0.027,-0.005,101.0,100.0,101.0,13.4,1505.2,343.4,-0.8,1.8,2471.365,13.29,0.027,6.3
2023-05-01T02:28:03,42.805,6.029,-0.031,0.011,-0.035,102.0,101.0,101.0,13.4,1505.2,324.9,-0.7,1.8,2471.389,13.29,0.032,289.5
2023-05-01T02:31:03,42.805,6.029,-0.027,0.047,-0.009,102.0,101.0,101.0,13.4,1505.2,323.6,-0.8,1.8,2471.382,13.29,0.054,330.1
2023-05-01T02:34:03,42.805,6.029,-0.003,0.022,-0.037,103.0,101.0,102.0,13.3,1505.2,323.5,-0.8,1.8,2471.384,13.29,0.022,352.2
2023-05-01T02:37:03,42.805,6.029,-0.032,0.027,-0.02,101.0,103.0,101.0,13.4,1505.2,318.9,-0.8,1.8,2471.384,13.29,0.041,310.2
2023-05-01T02:40:03,42.805,6.029,-0.05,0.021,-0.045,102.0,102.0,101.0,13.4,1505.2,321.9,-0.8,1.8,2471.391,13.29,0.054,292.8
2023-05-01T02:43:03,42.805,6.029,-0.021,0.017,-0.044,102.0,104.0,100.0,13.4,1505.2,325.0,-0.8,1.8,2471.375,13.29,0.027,309.0
2023-05-01T02:46:03,42.805,6.029,-0.044,0.059,-0.003,101.0,101.0,101.0,13.4,1505.2,342.7,-0.8,1.8,2471.437,13.29,0.073,323.3
2023-05-01T02:49:03,42.805,6.029,-0.034,0.028,-0.055,102.0,102.0,101.0,13.4,1505.2,344.2,-0.7,1.8,2471.396,13.29,0.044,309.5
2023-05-01T02:52:03,42.805,6.029,-0.043,0.033,-0.033,102.0,102.0,101.0,13.4,1505.2,328.4,-0.8,1.8,2471.389,13.29,0.054,307.5
2023-05-01T02:55:03,42.805,6.029,-0.021,0.017,-0.041,102.0,101.0,102.0,13.4,1505.2,333.9,-0.8,1.8,2471.399,13.29,0.027,309.0
2023-05-01T02:58:03,42.805,6.029,-0.021,0.014,-0.024,102.0,101.0,101.0,13.4,1505.2,327.7,-0.7,1.8,2471.386,13.29,0.025,303.7
2023-05-01T03:04:03,42.805,6.029,-0.04,0.015,-0.026,102.0,101.0,102.0,13.4,1505.2,317.6,-0.7,1.8,2471.457,13.28,0.042,290.6
2023-05-01T03:07:03,42.805,6.029,-0.033,0.023,-0.032,101.0,101.0,101.0,13.4,1505.2,334.6,-0.8,1.8,2471.452,13.29,0.04,304.9
2023-05-01T03:10:03,42.805,6.029,-0.031,-0.007,-0.054,101.0,102.0,101.0,13.3,1505.2,322.3,-0.7,1.8,2471.438,13.29,0.031,257.3
2023-05-01T03:13:03,42.805,6.029,-0.032,0.025,-0.014,101.0,103.0,100.0,13.4,1505.2,326.3,-0.8,1.9,2471.437,13.29,0.04,308.0
2023-05-01T03:16:03,42.805,6.029,-0.034,0.026,-0.04,103.0,98.0,100.0,13.4,1505.2,330.9,-0.8,1.8,2471.439,13.29,0.042,307.4
2023-05-01T03:19:03,42.805,6.029,-0.035,0.02,-0.039,101.0,101.0,101.0,13.3,1505.2,333.9,-0.8,1.8,2471.426,13.29,0.04,299.7
2023-05-01T03:22:03,42.805,6.029,-0.048,0.014,-0.037,101.0,100.0,101.0,13.4,1505.2,334.4,-0.8,1.8,2471.396,13.29,0.05,286.3
2023-05-01T03:25:03,42.805,6.029,-0.022,0.018,-0.061,99.0,104.0,102.0,13.4,1505.2,337.1,-0.7,1.8,2471.397,13.29,0.028,309.3
2023-05-01T03:28:03,42.805,6.029,-0.029,0.014,-0.01,102.0,100.0,102.0,13.3,1505.2,333.4,-0.8,1.8,2471.405,13.29,0.032,295.8
2023-05-01T03:31:03,42.805,6.029,-0.033,0.036,-0.009,102.0,99.0,101.0,13.3,1505.2,340.9,-0.7,1.8,2471.369,13.29,0.048,317.5
2023-05-01T03:34:03,42.805,6.029,-0.008,0.021,-0.022,101.0,101.0,102.0,13.4,1505.2,341.2,-0.8,1.8,2471.369,13.29,0.022,339.1
2023-05-01T03:37:03,42.805,6.029,-0.016,0.025,-0.012,101.0,101.0,102.0,13.3,1505.2,322.2,-0.8,1.8,2471.432,13.29,0.029,327.4
2023-05-01T03:40:03,42.805,6.029,-0.049,0.018,-0.026,103.0,101.0,102.0,13.4,1505.2,324.6,-0.8,1.8,2471.403,13.29,0.052,290.2
2023-05-01T03:43:03,42.805,6.029,-0.025,0.031,-0.017,100.0,102.0,101.0,13.4,1505.2,328.4,-0.7,1.8,2471.416,13.29,0.039,321.1
2023-05-01T03:46:03,42.805,6.029,-0.035,0.017,-0.033,101.0,101.0,100.0,13.4,1505.2,325.0,-0.8,1.8,2471.397,13.29,0.038,295.9
2023-05-01T03:49:03,42.805,6.029,-0.04,0.03,-0.002,104.0,99.0,99.0,13.4,1505.2,329.5,-0.7,1.8,2471.433,13.29,0.05,306.9
2023-05-01T03:52:03,42.805,6.029,-0.007,0.024,-0.024,101.0,100.0,100.0,13.4,1505.2,344.9,-0.8,1.8,2471.412,13.29,0.025,343.7
2023-05-01T03:55:03,42.805,6.029,-0.028,0.012,-0.05,101.0,101.0,101.0,13.3,1505.2,330.2,-0.7,1.8,2471.419,13.29,0.03,293.2
2023-05-01T03:58:03,42.805,6.029,-0.017,0.012,0.015,102.0,101.0,102.0,13.4,1505.2,315.6,-0.8,1.8,2471.407,13.29,0.02,305.2
2023-05-01T04:04:03,42.805,6.029,-0.025,0.024,-0.019,102.0,101.0,100.0,13.4,1505.2,325.5,-0.8,1.8,2471.482,13.28,0.034,313.8
2023-05-01T04:07:03,42.805,6.029,-0.019,0.025,-0.03,102.0,100.0,103.0,13.4,1505.2,334.3,-0.8,1.8,2471.467,13.29,0.031,322.8
2023-05-01T04:10:03,42.805,6.029,-0.026,0.02,-0.053,101.0,103.0,101.0,13.4,1505.2,330.8,-0.8,1.8,2471.453,13.29,0.032,307.6
2023-05-01T04:13:03,42.805,6.029,-0.018,0.021,-0.04,102.0,102.0,101.0,13.4,1505.2,342.9,-0.8,1.8,2471.422,13.29,0.027,319.4
2023-05-01T04:16:03,42.805,6.029,-0.038,0.017,-0.005,101.0,102.0,101.0,13.4,1505.2,336.5,-0.8,1.8,2471.45,13.29,0.041,294.1
2023-05-01T04:19:03,42.805,6.029,-0.037,0.034,0.0,103.0,100.0,102.0,13.4,1505.2,342.3,-0.8,1.8,2471.423,13.29,0.05,312.6
2023-05-01T04:22:03,42.805,6.029,-0.038,0.027,-0.047,100.0,100.0,101.0,13.3,1505.2,331.0,-0.8,1.8,2471.436,13.29,0.046,305.4
2023-05-01T04:25:03,42.805,6.029,-0.046,0.031,-0.024,101.0,101.0,102.0,13.4,1505.2,321.7,-0.8,1.8,2471.396,13.29,0.055,304.0
2023-05-01T04:28:03,42.805,6.029,-0.04,0.037,-0.008,102.0,102.0,100.0,13.4,1505.2,336.5,-0.8,1.8,2471.417,13.29,0.054,312.8
2023-05-01T04:31:03,42.805,6.029,-0.046,0.034,-0.04,102.0,101.0,101.0,13.4,1505.2,339.7,-0.7,1.8,2471.415,13.29,0.057,306.5
2023-05-01T04:34:03,42.805,6.029,-0.029,0.011,-0.027,101.0,100.0,101.0,13.4,1505.2,327.8,-0.8,1.8,2471.4,13.29,0.031,290.8
2023-05-01T04:37:03,42.805,6.029,-0.044,0.023,-0.019,101.0,101.0,102.0,13.3,1505.2,327.2,-0.8,1.8,2471.394,13.29,0.049,297.6
2023-05-01T04:40:03,42.805,6.029,-0.026,0.007,-0.038,102.0,102.0,100.0,13.3,1505.2,325.4,-0.8,1.8,2471.401,13.29,0.026,285.1
2023-05-01T04:43:03,42.805,6.029,-0.031,0.001,-0.015,102.0,100.0,101.0,13.3,1505.2,317.0,-0.8,1.8,2471.431,13.29,0.031,271.8
2023-05-01T04:46:03,42.805,6.029,-0.042,0.03,-0.02,101.0,101.0,104.0,13.3,1505.2,324.1,-0.7,1.8,2471.442,13.29,0.051,305.5
2023-05-01T04:49:03,42.805,6.029,-0.06,0.017,-0.049,102.0,101.0,100.0,13.4,1505.2,327.4,-0.8,1.8,2471.406,13.29,0.062,285.8
2023-05-01T04:52:03,42.805,6.029,-0.036,0.0,-0.067,100.0,102.0,101.0,13.4,1505.2,332.9,-0.8,1.8,2471.432,13.29,0.036,270.0
2023-05-01T04:55:03,42.805,6.029,-0.042,0.03,-0.029,99.0,103.0,101.0,13.4,1505.2,338.0,-0.8,1.8,2471.423,13.29,0.051,305.5
2023-05-01T04:58:03,42.805,6.029,-0.029,0.023,-0.057,102.0,101.0,100.0,13.4,1505.2,335.2,-0.8,1.8,2471.397,13.29,0.037,308.4
2023-05-01T05:04:03,42.805,6.029,-0.022,-0.018,-0.063,101.0,100.0,102.0,13.3,1505.2,336.5,-0.7,1.9,2471.498,13.28,0.028,230.7
2023-05-01T05:07:03,42.805,6.029,-0.034,0.051,-0.03,103.0,101.0,101.0,13.4,1505.2,339.7,-0.8,1.8,2471.46,13.28,0.061,326.3
2023-05-01T05:10:03,42.805,6.029,-0.052,0.04,-0.027,103.0,101.0,100.0,13.4,1505.2,331.8,-0.7,1.8,2471.462,13.29,0.065,307.6
2023-05-01T05:13:03,42.805,6.029,-0.03,0.017,-0.04,100.0,103.0,99.0,13.4,1505.2,325.4,-0.8,1.8,2471.477,13.29,0.034,299.5
2023-05-01T05:16:03,42.805,6.029,-0.028,0.026,0.016,101.0,100.0,101.0,13.4,1505.2,329.1,-0.7,1.8,2471.466,13.29,0.038,312.9
2023-05-01T05:19:03,42.805,6.029,-0.044,0.011,-0.051,103.0,101.0,100.0,13.3,1505.2,333.9,-0.8,1.8,2471.452,13.29,0.045,284.0
2023-05-01T05:22:03,42.805,6.029,-0.034,-0.003,-0.05,102.0,100.0,102.0,13.4,1505.2,326.5,-0.8,1.8,2471.444,13.29,0.034,265.0
2023-05-01T05:25:03,42.805,6.029,-0.059,0.02,-0.012,101.0,101.0,102.0,13.4,1505.2,317.6,-0.8,1.8,2471.414,13.29,0.062,288.7
2023-05-01T05:28:03,42.805,6.029,-0.041,0.033,-0.045,103.0,100.0,102.0,13.4,1505.2,334.4,-0.7,1.8,2471.426,13.29,0.052,308.8
2023-05-01T05:31:03,42.805,6.029,-0.037,0.048,0.01,102.0,101.0,100.0,13.4,1505.2,322.7,-0.7,1.9,2471.448,13.29,0.06,322.4
2023-05-01T05:34:03,42.805,6.029,-0.023,0.023,-0.01,102.0,100.0,101.0,13.4,1505.2,339.7,-0.8,1.8,2471.432,13.29,0.032,315.0
2023-05-01T05:37:03,42.805,6.029,-0.059,0.014,-0.038,102.0,101.0,101.0,13.4,1505.2,322.9,-0.7,1.8,2471.45,13.29,0.06,283.3
2023-05-01T05:40:03,42.805,6.029,-0.013,0.029,-0.005,103.0,102.0,101.0,13.4,1505.2,325.5,-0.7,1.8,2471.422,13.29,0.031,335.9
2023-05-01T05:43:03,42.805,6.029,-0.037,0.025,-0.056,102.0,103.0,100.0,13.4,1505.2,330.9,-0.7,1.8,2471.455,13.29,0.044,304.0
2023-05-01T05:46:03,42.805,6.029,-0.035,0.019,-0.058,102.0,103.0,100.0,13.3,1505.2,340.9,-0.8,1.8,2471.425,13.29,0.039,298.5
2023-05-01T05:49:03,42.805,6.029,-0.018,0.002,-0.06,101.0,103.0,102.0,13.4,1505.2,324.2,-0.8,1.8,2471.398,13.29,0.018,276.3
2023-05-01T05:52:03,42.805,6.029,-0.036,0.018,-0.029,102.0,100.0,101.0,13.3,1505.2,327.7,-0.8,1.8,2471.407,13.29,0.04,296.6
2023-05-01T05:55:03,42.805,6.029,-0.031,0.019,-0.017,101.0,101.0,101.0,13.4,1505.2,334.4,-0.8,1.8,2471.398,13.29,0.036,301.5
2023-05-01T05:58:03,42.805,6.029,-0.029,0.027,-0.04,102.0,101.0,101.0,13.3,1505.2,341.2,-0.8,1.8,2471.419,13.29,0.039,313.0
2023-05-01T06:04:03,42.805,6.029,-0.042,0.002,-0.035,101.0,100.0,101.0,13.4,1505.2,316.8,-0.7,1.8,2471.481,13.28,0.042,272.7
2023-05-01T06:07:03,42.805,6.029,-0.032,0.041,-0.026,102.0,102.0,101.0,13.3,1505.2,335.2,-0.8,1.8,2471.457,13.29,0.052,322.0
2023-05-01T06:10:03,42.805,6.029,-0.031,0.042,-0.009,101.0,101.0,101.0,13.4,1505.2,332.4,-0.8,1.8,2471.466,13.29,0.052,323.6
2023-05-01T06:13:03,42.805,6.029,-0.037,0.034,-0.038,101.0,102.0,101.0,13.3,1505.2,345.1,-0.8,1.8,2471.449,13.29,0.05,312.6
2023-05-01T06:16:03,42.805,6.029,-0.042,0.023,-0.021,102.0,102.0,101.0,13.4,1505.2,330.1,-0.7,1.8,2471.425,13.29,0.047,298.7
2023-05-01T06:19:03,42.805,6.029,-0.05,0.007,-0.045,101.0,100.0,101.0,13.3,1505.2,329.0,-0.8,1.8,2471.399,13.29,0.05,278.0
2023-05-01T06:22:03,42.805,6.029,-0.03,0.02,-0.044,104.0,100.0,102.0,13.3,1505.2,341.5,-0.8,1.8,2471.409,13.29,0.036,303.7
2023-05-01T06:25:03,42.805,6.029,-0.028,0.02,-0.049,103.0,102.0,101.0,13.4,1505.2,316.9,-0.7,1.8,2471.399,13.29,0.034,305.5
2023-05-01T06:28:03,42.805,6.029,-0.026,0.025,-0.018,103.0,101.0,101.0,13.3,1505.2,339.1,-0.7,1.8,2471.408,13.29,0.036,313.9
2023-05-01T06:31:03,42.805,6.029,-0.02,0.012,-0.055,102.0,102.0,101.0,13.4,1505.2,329.3,-0.8,1.8,2471.394,13.29,0.023,301.0
2023-05-01T06:34:03,42.805,6.029,-0.041,0.02,-0.038,102.0,101.0,101.0,13.4,1505.2,326.9,-0.7,1.8,2471.447,13.29,0.045,296.0
2023-05-01T06:37:03,42.805,6.029,-0.047,0.029,-0.036,101.0,101.0,101.0,13.4,1505.2,330.6,-0.8,1.8,2471.396,13.29,0.055,301.7
2023-05-01T06:40:03,42.805,6.029,-0.036,0.011,-0.025,101.0,101.0,102.0,13.3,1505.2,322.1,-0.8,1.8,2471.411,13.29,0.037,287.0
2023-05-01T06:43:03,42.805,6.029,-0.056,0.031,-0.038,102.0,101.0,102.0,13.4,1505.2,330.3,-0.7,1.8,2471.37,13.29,0.064,299.0
2023-05-01T06:46:03,42.805,6.029,-0.022,0.031,0.027,102.0,101.0,100.0,13.3,1505.2,321.7,-0.7,1.8,2471.391,13.29,0.038,324.6
2023-05-01T06:49:03,42.805,6.029,-0.047,0.019,-0.023,104.0,102.0,101.0,13.4,1505.2,322.3,-0.8,1.8,2471.411,13.29,0.05,292.0
2023-05-01T06:52:03,42.805,6.029,-0.026,0.021,-0.043,102.0,101.0,101.0,13.4,1505.2,325.4,-0.8,1.8,2471.395,13.29,0.033,308.9
2023-05-01T06:55:03,42.805,6.029,-0.004,0.021,-0.009,102.0,101.0,101.0,13.3,1505.2,341.5,-0.7,1.8,2471.402,13.29,0.021,349.2
2023-05-01T06:58:03,42.805,6.029,-0.048,0.023,-0.024,101.0,103.0,100.0,13.4,1505.2,319.4,-0.8,1.8,2471.401,13.29,0.053,295.6
2023-05-01T07:04:03,42.805,6.029,-0.032,0.032,-0.003,103.0,100.0,101.0,13.3,1505.2,324.2,-0.7,1.8,2471.463,13.28,0.045,315.0
2023-05-01T07:07:03,42.805,6.029,-0.027,0.019,-0.039,102.0,102.0,99.0,13.4,1505.2,336.3,-0.8,1.8,2471.425,13.28,0.033,305.1
2023-05-01T07:10:03,42.805,6.029,-0.026,0.016,-0.005,103.0,101.0,102.0,13.4,1505.2,333.4,-0.8,1.8,2471.374,13.29,0.03,301.6
2023-05-01T07:13:03,42.805,6.029,-0.035,0.033,-0.017,102.0,101.0,101.0,13.3,1505.2,327.5,-0.7,1.8,2471.382,13.29,0.048,313.3
2023-05-01T07:16:03,42.805,6.029,-0.016,0.025,0.0,102.0,101.0,102.0,13.4,1505.2,331.4,-0.8,1.9,2471.387,13.29,0.029,327.4
2023-05-01T07:19:03,42.805,6.029,-0.045,0.044,-0.015,102.0,102.0,101.0,13.3,1505.2,330.2,-0.8,1.8,2471.415,13.29,0.062,314.4
2023-05-01T07:22:03,42.805,6.029,-0.028,0.034,-0.029,101.0,101.0,100.0,13.4,1505.2,344.2,-0.8,1.8,2471.407,13.29,0.044,320.5
2023-05-01T07:25:03,42.805,6.029,-0.06,0.03,-0.016,102.0,101.0,101.0,13.3,1505.2,322.5,-0.7,1.8,2471.396,13.29,0.067,296.6
2023-05-01T07:28:03,42.805,6.029,-0.038,0.032,-0.043,101.0,101.0,101.0,13.3,1505.2,333.4,-0.8,1.8,2471.354,13.29,0.049,310.1
2023-05-01T07:31:03,42.805,6.029,-0.037,0.028,-0.02,101.0,101.0,101.0,13.4,1505.2,321.4,-0.7,1.8,2471.389,13.29,0.046,307.1
2023-05-01T07:34:03,42.805,6.029,-0.049,0.04,-0.015,102.0,101.0,101.0,13.3,1505.2,332.9,-0.8,1.8,2471.367,13.29,0.063,309.2
2023-05-01T07:37:03,42.805,6.029,-0.029,0.013,-0.049,101.0,101.0,101.0,13.4,1505.2,325.1,-0.7,1.8,2471.377,13.29,0.031,294.1
2023-05-01T07:40:03,42.805,6.029,-0.045,0.027,-0.013,103.0,101.0,101.0,13.4,1505.2,326.0,-0.7,1.8,2471.36,13.29,0.052,301.0
2023-05-01T07:43:03,42.805,6.029,-0.048,0.023,-0.036,101.0,101.0,100.0,13.4,1505.2,329.8,-0.8,1.8,2471.348,13.29,0.053,295.6
2023-05-01T07:46:03,42.805,6.029,-0.048,0.026,-0.053,101.0,103.0,101.0,13.4,1505.2,318.9,-0.7,1.8,2471.386,13.29,0.054,298.4
2023-05-01T07:49:03,42.805,6.029,-0.045,0.017,-0.035,102.0,102.0,101.0,13.3,1505.2,324.1,-0.7,1.8,2471.363,13.29,0.048,290.7
2023-05-01T07:52:03,42.805,6.029,-0.022,0.009,-0.028,101.0,101.0,101.0,13.3,1505.2,329.0,-0.7,1.8,2471.378,13.29,0.023,292.2
2023-05-01T07:55:03,42.805,6.029,-0.021,0.024,-0.019,101.0,101.0,100.0,13.3,1505.2,331.6,-0.8,1.8,2471.361,13.29,0.031,318.8
2023-05-01T07:58:03,42.805,6.029,-0.032,0.008,-0.036,99.0,101.0,102.0,13.4,1505.2,334.8,-0.7,1.8,2471.363,13.29,0.032,284.0
2023-05-01T08:04:03,42.805,6.029,-0.053,0.008,-0.061,102.0,101.0,101.0,13.3,1505.2,322.1,-0.8,1.8,2471.385,13.28,0.053,278.6
2023-05-01T08:07:03,42.805,6.029,-0.035,0.029,-0.032,101.0,101.0,101.0,13.4,1505.2,336.5,-0.8,1.8,2471.384,13.28,0.045,309.6
2023-05-01T08:10:03,42.805,6.029,-0.04,0.018,-0.035,101.0,101.0,101.0,13.4,1505.2,324.6,-0.8,1.8,2471.432,13.29,0.043,294.2
2023-05-01T08:13:03,42.805,6.029,-0.022,0.043,-0.018,100.0,100.0,101.0,13.3,1505.2,334.7,-0.8,1.8,2471.362,13.29,0.048,332.9
2023-05-01T08:16:03,42.805,6.029,-0.063,0.034,-0.021,100.0,101.0,101.0,13.4,1505.2,324.5,-0.8,1.8,2471.377,13.29,0.071,298.4
2023-05-01T08:19:03,42.805,6.029,-0.033,0.036,-0.023,102.0,102.0,103.0,13.3,1505.2,334.4,-0.8,1.8,2471.367,13.29,0.048,317.5
2023-05-01T08:22:03,42.805,6.029,-0.045,0.037,-0.006,103.0,103.0,100.0,13.3,1505.2,334.4,-0.8,1.8,2471.336,13.29,0.058,309.4
2023-05-01T08:25:03,42.805,6.029,-0.01,0.008,-0.019,101.0,101.0,102.0,13.4,1505.2,340.1,-0.8,1.8,2471.355,13.29,0.012,308.7
2023-05-01T08:28:03,42.805,6.029,-0.033,0.043,-0.017,102.0,102.0,101.0,13.4,1505.2,336.3,-0.7,1.8,2471.346,13.29,0.054,322.5
2023-05-01T08:31:03,42.805,6.029,-0.038,0.033,-0.009,101.0,102.0,101.0,13.4,1505.2,332.5,-0.8,1.8,2471.325,13.29,0.05,311.0
2023-05-01T08:34:03,42.805,6.029,-0.035,0.013,-0.043,101.0,102.0,100.0,13.4,1505.2,335.3,-0.8,1.8,2471.367,13.29,0.037,290.4
2023-05-01T08:37:03,42.805,6.029,-0.031,0.04,-0.026,101.0,102.0,101.0,13.4,1505.2,332.5,-0.8,1.9,2471.35,13.29,0.05,322.2
2023-05-01T08:40:03,42.805,6.029,-0.03,0.018,-0.039,102.0,101.0,101.0,13.4,1505.2,334.4,-0.8,1.8,2471.313,13.29,0.034,301.0
2023-05-01T08:43:03,42.805,6.029,-0.041,0.031,-0.013,102.0,101.0,101.0,13.4,1505.2,328.5,-0.8,1.8,2471.345,13.29,0.051,307.1
2023-05-01T08:46:03,42.805,6.029,-0.047,0.028,-0.023,102.0,101.0,101.0,13.4,1505.2,332.9,-0.8,1.8,2471.327,13.29,0.054,300.8
2023-05-01T08:49:03,42.805,6.029,-0.048,0.017,-0.026,102.0,100.0,101.0,13.4,1505.2,327.6,-0.8,1.8,2471.348,13.29,0.05,289.5
2023-05-01T08:52:03,42.805,6.029,-0.051,0.045,0.0,101.0,101.0,101.0,13.4,1505.2,329.8,-0.7,1.8,2471.352,13.29,0.068,311.4
2023-05-01T08:55:03,42.805,6.029,-0.028,0.024,-0.027,101.0,101.0,101.0,13.4,1505.2,330.3,-0.8,1.8,2471.328,13.29,0.036,310.6
2023-05-01T08:58:03,42.805,6.029,-0.014,0.037,0.004,103.0,100.0,101.0,13.3,1505.2,328.8,-0.8,1.8,2471.325,13.29,0.039,339.3
2023-05-01T09:04:03,42.805,6.029,-0.034,0.006,-0.019,101.0,101.0,100.0,13.4,1505.2,315.6,-0.8,1.9,2471.383,13.28,0.034,280.0
2023-05-01T09:07:03,42.805,6.029,-0.032,0.021,-0.003,102.0,101.0,101.0,13.4,1505.2,322.4,-0.7,1.8,2471.349,13.29,0.038,303.3
2023-05-01T09:10:03,42.805,6.029,-0.026,0.024,-0.02,102.0,103.0,101.0,13.4,1505.2,326.5,-0.8,1.8,2471.344,13.29,0.035,312.7
2023-05-01T09:13:03,42.805,6.029,-0.027,0.033,-0.034,102.0,101.0,102.0,13.4,1505.2,346.7,-0.8,1.8,2471.322,13.29,0.042,320.7
2023-05-01T09:16:03,42.805,6.029,-0.038,0.019,-0.018,100.0,101.0,101.0,13.4,1505.2,325.1,-0.8,1.8,2471.314,13.29,0.042,296.6
2023-05-01T09:19:03,42.805,6.029,-0.043,0.027,-0.022,101.0,101.0,100.0,13.4,1505.2,334.4,-0.8,1.8,2471.32,13.29,0.05,302.1
2023-05-01T09:22:03,42.805,6.029,-0.016,0.037,-0.022,101.0,101.0,101.0,13.4,1505.2,335.0,-0.8,1.8,2471.33,13.29,0.04,336.6
2023-05-01T09:25:03,42.805,6.029,-0.043,0.035,-0.039,101.0,102.0,101.0,13.4,1505.2,342.6,-0.8,1.8,2471.321,13.29,0.055,309.1
2023-05-01T09:28:03,42.805,6.029,-0.03,0.031,-0.003,101.0,100.0,101.0,13.3,1505.2,325.1,-0.8,1.8,2471.337,13.29,0.043,315.9
2023-05-01T09:31:03,42.805,6.029,-0.043,0.028,-0.035,102.0,102.0,101.0,13.4,1505.2,329.2,-0.7,1.8,2471.289,13.29,0.051,303.1
2023-05-01T09:34:03,42.805,6.029,-0.014,0.006,-0.053,101.0,101.0,101.0,13.4,1505.2,341.2,-0.7,1.8,2471.299,13.29,0.015,293.2
2023-05-01T09:37:03,42.805,6.029,-0.036,0.014,-0.045,102.0,102.0,101.0,13.3,1505.2,318.5,-0.8,1.8,2471.303,13.29,0.038,291.2
2023-05-01T09:40:03,42.805,6.029,-0.022,0.038,-0.032,102.0,101.0,101.0,13.4,1505.2,328.8,-0.8,1.8,2471.308,13.29,0.043,329.9
2023-05-01T09:43:03,42.805,6.029,0.0,0.013,-0.006,102.0,101.0,101.0,13.3,1505.2,333.9,-0.7,1.8,2471.294,13.29,0.013,0.0
2023-05-01T09:46:03,42.805,6.029,-0.035,0.028,-0.023,102.0,101.0,102.0,13.3,1505.2,325.3,-0.8,1.8,2471.298,13.29,0.044,308.7
2023-05-01T09:49:03,42.805,6.029,0.0,0.031,0.01,101.0,100.0,100.0,13.4,1505.2,332.9,-0.8,1.8,2471.282,13.29,0.03,0.0
2023-05-01T09:52:03,42.805,6.029,-0.053,0.022,-0.044,101.0,100.0,100.0,13.4,1505.2,326.5,-0.8,1.8,2471.292,13.29,0.057,292.5
2023-05-01T09:55:03,42.805,6.029,-0.025,0.004,-0.051,101.0,101.0,101.0,13.4,1505.2,324.1,-0.7,1.8,2471.245,13.29,0.025,279.1